GW2437 Weather Reports


time (UTC)temp
F
wind
direction
speed
knots
gust
knots
rain 1hr
in
rain 24hr
in
rain mn
in
humidity
%
barometer
mb
20260510020317 71 43 2.6 2.6 0.90 0.22 0.22 99 1013.1
20260510015813 72 67 0.9 1.7 0.85 0.19 0.19 99 1013.1
20260510015310 73 325 4.3 7.0 0.19 0.07 0.07 99 1012.9
20260510014805 74 345 1.7 2.6 0.12 0.05 0.05 99 1012.4
20260510014302 74 42 0.9 2.6 0.00 0.03 0.03 99 1012.1
20260510013758 74 53 0.0 1.7 0.00 0.03 0.03 99 1012.1
20260510013254 74 43 0.0 0.9 0.00 0.03 0.03 99 1011.8
20260510012749 74 50 0.9 2.6 0.00 0.03 0.03 99 1011.7
20260510012244 75 90 0.9 1.7 0.05 0.03 0.03 99 1011.5
20260510011743 75 57 0.9 1.7 0.05 0.03 0.03 99 1011.5
20260510011239 75 58 0.0 1.7 0.07 0.02 0.02 99 1011.3
20260510010737 75 141 3.5 5.2 0.07 0.02 0.02 98 1011.3
20260510010233 75 106 0.9 1.7 0.05 0.01 0.01 98 1010.9
20260510005730 76 77 0.0 1.7 0.05 0.01 0.01 97 1011.1
20260510005226 76 73 0.9 2.6 0.00 0.00 0.00 96 1011.0
20260510004724 76 164 1.7 2.6 0.00 0.00 0.00 95 1010.9
20260510004222 77 58 1.7 4.3 0.00 0.00 0.00 94 1011.1
20260510003719 77 81 1.7 2.6 0.00 0.00 0.00 94 1010.9
20260510003215 77 70 0.0 2.6 0.00 0.00 0.00 94 1010.7
20260510002714 77 125 1.7 7.0 0.00 0.00 0.00 94 1010.3
20260510002212 77 66 1.7 4.3 0.00 0.00 0.00 94 1010.2
20260510001709 77 68 0.0 1.7 0.00 0.00 0.00 94 1010.0
20260510001207 77 61 0.9 1.7 0.00 0.00 0.00 95 1010.0
20260510000702 77 65 0.9 1.7 0.00 0.00 0.00 95 1009.8
20260510000200 77 18 0.9 1.7 0.00 0.00 0.00 95 1009.8
20260509235656 77 36 0.9 5.2 0.00 0.00 0.00 95 1009.7
20260509235152 77 114 0.9 1.7 0.00 0.00 0.00 95 1009.2
20260509234649 77 66 0.9 2.6 0.00 0.00 0.00 95 1009.2
20260509234146 77 114 0.9 1.7 0.00 0.00 0.00 95 1009.4
20260509233644 77 97 2.6 4.3 0.00 0.00 0.00 94 1009.3
20260509233141 77 87 0.9 1.7 0.00 0.00 0.00 94 1009.2
20260509232637 77 93 0.9 5.2 0.00 0.00 0.00 93 1009.1
20260509232134 78 53 2.6 4.3 0.00 0.00 0.00 92 1009.4
20260509231631 78 160 2.6 11.3 0.00 0.00 0.00 92 1009.6
20260509231128 78 76 1.7 4.3 0.00 0.00 0.00 92 1009.4
20260509230625 78 84 0.0 1.7 0.00 0.00 0.00 93 1009.2
20260509230122 78 83 0.0 2.6 0.00 0.00 0.00 93 1009.4
20260509225618 77 80 0.9 1.7 0.00 0.00 0.00 92 1009.4
20260509225113 77 64 0.9 2.6 0.00 0.00 0.00 91 1009.4
20260509224609 78 91 2.6 2.6 0.00 0.00 0.00 90 1009.2
20260509224106 78 82 0.9 4.3 0.00 0.00 0.00 88 1009.3
20260509223603 78 93 2.6 2.6 0.00 0.00 0.00 87 1009.3
20260509223101 78 71 1.7 2.6 0.00 0.00 0.00 88 1009.3
20260509222557 79 114 0.9 2.6 0.00 0.00 0.00 90 1009.0
20260509222053 80 54 1.7 4.3 0.00 0.00 0.00 91 1009.1
20260509221548 80 74 0.0 1.7 0.00 0.00 0.00 91 1009.0
20260509221045 80 124 1.7 2.6 0.00 0.00 0.00 91 1008.8
20260509220541 80 60 0.9 4.3 0.00 0.00 0.00 92 1008.8
20260509220037 79 21 0.9 2.6 0.00 0.00 0.00 92 1008.7
20260509215532 80 99 2.6 4.3 0.00 0.00 0.00 90 1008.9
20260509215030 81 88 1.7 4.3 0.00 0.00 0.00 89 1008.6
20260509214527 81 62 0.9 1.7 0.00 0.00 0.00 88 1008.6
20260509214024 81 99 0.9 2.6 0.00 0.00 0.00 88 1008.7
20260509213520 81 149 0.9 4.3 0.00 0.00 0.00 88 1008.6
20260509213017 81 52 1.7 4.3 0.00 0.00 0.00 87 1008.4
20260509212514 83 16 0.9 1.7 0.00 0.00 0.00 85 1008.1
20260509212011 87 82 1.7 4.3 0.00 0.00 0.00 78 1008.3
20260509211506 88 337 0.9 0.9 0.00 0.00 0.00 75 1008.2
20260509211003 88 40 0.9 0.9 0.00 0.00 0.00 72 1008.3
20260509210500 88 249 0.9 1.7 0.00 0.00 0.00 72 1008.4
20260509205956 88 231 2.6 2.6 0.00 0.00 0.00 72 1008.4
20260509205450 89 233 0.0 1.7 0.00 0.00 0.00 73 1008.3
20260509204946 89 168 1.7 2.6 0.00 0.00 0.00 73 1008.2
20260509204443 89 34 0.9 0.9 0.00 0.00 0.00 71 1008.4
20260509203940 89 14 0.0 1.7 0.00 0.00 0.00 73 1008.3
20260509203435 88 310 0.9 1.7 0.00 0.00 0.00 74 1008.3
20260509202933 89 358 1.7 2.6 0.00 0.00 0.00 75 1008.5
20260509202429 89 37 0.0 2.6 0.00 0.00 0.00 73 1008.5
20260509201924 88 348 3.5 4.3 0.00 0.00 0.00 76 1008.3
20260509201420 89 344 0.9 2.6 0.00 0.00 0.00 76 1008.5
20260509200917 88 346 2.6 5.2 0.00 0.00 0.00 76 1008.8
20260509200417 88 1 0.9 0.9 0.00 0.00 0.00 77 1008.7
20260509195913 87 1 0.9 1.7 0.00 0.00 0.00 80 1009.0
20260509195408 87 353 1.7 1.7 0.00 0.00 0.00 79 1008.9
20260509194903 87 255 0.9 1.7 0.00 0.00 0.00 80 1009.1
20260509194359 86 198 0.9 2.6 0.00 0.00 0.00 80 1008.9
20260509193856 87 82 0.0 1.7 0.00 0.00 0.00 80 1009.1
20260509193356 87 127 0.9 1.7 0.00 0.00 0.00 79 1009.2
20260509192852 86 92 0.9 2.6 0.00 0.00 0.00 81 1009.2
20260509192348 86 2 0.9 4.3 0.00 0.00 0.00 83 1009.2
20260509191844 86 219 1.7 1.7 0.00 0.00 0.00 81 1009.3
20260509191340 86 356 0.0 0.9 0.00 0.00 0.00 81 1009.3
20260509190836 86 2 1.7 2.6 0.00 0.00 0.00 84 1009.4
20260509190333 84 50 0.0 0.9 0.00 0.00 0.00 86 1009.7
20260509185830 84 107 0.0 1.7 0.00 0.00 0.00 85 1009.3
20260509185327 84 14 1.7 1.7 0.00 0.00 0.00 87 1009.7
20260509184824 83 28 0.9 0.9 0.00 0.00 0.00 87 1009.7
20260509184321 83 336 2.6 2.6 0.00 0.00 0.00 87 1010.0
20260509183818 84 7 1.7 1.7 0.00 0.00 0.00 87 1009.7
20260509183313 84 24 0.0 0.9 0.00 0.00 0.00 86 1009.7
20260509182809 85 20 0.9 0.9 0.00 0.00 0.00 86 1009.7
20260509182307 84 11 1.7 1.7 0.00 0.00 0.00 85 1009.8
20260509181803 84 337 0.9 2.6 0.00 0.00 0.00 85 1009.9
20260509181301 84 332 2.6 2.6 0.00 0.00 0.00 85 1010.0
20260509180758 84 323 0.9 0.9 0.00 0.00 0.00 86 1010.1
20260509180254 84 62 0.0 0.9 0.00 0.00 0.00 87 1010.0
20260509175750 83 58 0.0 1.7 0.00 0.00 0.00 87 1010.2
20260509175247 83 343 1.7 2.6 0.00 0.00 0.00 87 1010.4
20260509174743 83 358 0.9 1.7 0.00 0.00 0.00 87 1010.3
20260509174238 83 154 1.7 2.6 0.00 0.00 0.00 88 1010.5
20260509173735 84 38 0.0 0.0 0.00 0.00 0.00 86 1010.7
20260509173230 83 23 0.9 1.7 0.00 0.00 0.00 87 1010.8
20260509172727 84 68 0.0 0.9 0.00 0.00 0.00 87 1010.5
20260509172223 84 56 0.9 0.9 0.00 0.00 0.00 87 1010.7
20260509171718 83 76 0.0 0.9 0.00 0.00 0.00 88 1010.6
20260509171215 82 54 0.0 1.7 0.00 0.00 0.00 90 1010.6
20260509170712 82 39 0.9 2.6 0.00 0.00 0.00 91 1010.6
20260509170208 83 29 0.9 1.7 0.00 0.00 0.00 90 1010.6
20260509165707 83 54 0.0 1.7 0.00 0.00 0.00 90 1010.6
20260509165202 83 2 2.6 2.6 0.00 0.00 0.00 90 1010.6
20260509164658 83 55 0.9 1.7 0.00 0.00 0.00 90 1010.6
20260509164154 82 66 0.9 1.7 0.00 0.00 0.00 91 1010.6
20260509163652 82 62 0.0 0.9 0.00 0.00 0.00 92 1010.5
20260509163148 82 48 0.0 0.9 0.00 0.00 0.00 92 1010.6
20260509162645 82 40 0.0 1.7 0.00 0.00 0.00 92 1010.8
20260509162141 82 56 0.9 0.9 0.00 0.00 0.00 91 1010.8
20260509161637 82 72 0.0 0.9 0.00 0.00 0.00 92 1010.9
20260509161132 81 89 0.9 1.7 0.00 0.00 0.00 93 1011.0
20260509160628 81 348 2.6 2.6 0.00 0.00 0.00 94 1010.9
20260509160124 80 71 0.0 0.0 0.00 0.00 0.00 96 1010.8
20260509155621 79 80 0.0 0.9 0.00 0.00 0.00 97 1011.0
20260509155116 78 63 0.0 0.0 0.00 0.00 0.00 99 1010.9
20260509154612 78 108 0.9 0.9 0.00 0.00 0.00 99 1011.1
20260509154110 77 354 0.0 1.7 0.00 0.00 0.00 99 1011.0
20260509153607 78 89 0.0 0.9 0.00 0.00 0.00 99 1010.9
20260509153104 77 46 0.0 0.9 0.00 0.00 0.00 99 1010.9
20260509152600 77 41 0.9 1.7 0.00 0.00 0.00 99 1010.9
20260509152057 77 74 0.0 0.9 0.00 0.00 0.00 99 1010.9
20260509151553 77 48 0.0 0.9 0.00 0.00 0.00 99 1010.8
20260509151051 76 143 0.0 0.9 0.00 0.00 0.00 99 1010.7
20260509150548 76 70 0.9 0.9 0.00 0.00 0.00 99 1010.5
20260509150047 76 28 0.9 1.7 0.00 0.00 0.00 99 1010.4
20260509145542 76 117 0.0 0.9 0.00 0.00 0.00 99 1010.7
20260509145037 76 87 0.9 1.7 0.00 0.00 0.00 99 1010.7
20260509144534 76 99 0.0 0.0 0.00 0.00 0.00 99 1010.8
20260509144032 75 62 0.0 0.9 0.00 0.00 0.00 99 1010.8
20260509143528 75 45 0.0 0.0 0.00 0.00 0.00 99 1010.7
20260509143026 75 102 0.9 1.7 0.00 0.00 0.00 99 1010.4
20260509142521 76 66 0.0 0.0 0.00 0.00 0.00 99 1010.3
20260509142017 75 353 0.9 1.7 0.00 0.00 0.00 99 1010.5
20260509141514 75 45 0.9 2.6 0.00 0.00 0.00 99 1010.6
20260509141011 75 356 1.7 1.7 0.00 0.00 0.00 99 1010.5
20260509140508 75 358 2.6 2.6 0.00 0.00 0.00 99 1010.2
20260509140006 75 66 0.0 0.9 0.00 0.00 0.00 99 1010.4
20260509135502 75 39 0.0 1.7 0.00 0.00 0.00 99 1010.2
20260509135000 75 6 0.9 1.7 0.00 0.00 0.00 99 1010.3
20260509134457 75 48 0.0 0.0 0.00 0.00 0.00 99 1010.3
20260509133955 75 67 0.0 0.0 0.00 0.00 0.00 99 1010.4
20260509133451 74 59 0.0 0.9 0.00 0.00 0.00 99 1010.4
20260509132949 74 353 1.7 1.7 0.00 0.00 0.00 99 1010.5
20260509132447 74 0 1.7 1.7 0.00 0.00 0.00 99 1010.6
20260509131944 74 33 1.7 1.7 0.00 0.00 0.00 99 1010.6
20260509131441 74 14 0.9 1.7 0.00 0.00 0.00 99 1010.8
20260509130937 74 39 0.0 0.0 0.00 0.00 0.00 99 1010.5
20260509130432 74 47 0.0 0.0 0.00 0.00 0.00 99 1010.7
20260509125930 74 48 0.0 0.0 0.00 0.00 0.00 99 1010.7
20260509125427 73 47 0.0 0.0 0.00 0.00 0.00 99 1010.7
20260509124923 73 47 0.0 0.0 0.00 0.00 0.00 99 1010.8
20260509124420 73 47 0.0 0.0 0.00 0.00 0.00 99 1010.6
20260509123917 73 47 0.0 0.0 0.00 0.00 0.00 99 1010.5
20260509123415 73 47 0.0 0.0 0.00 0.00 0.00 99 1010.6
20260509122910 73 46 0.0 0.0 0.00 0.00 0.00 99 1010.4
20260509122408 73 51 0.0 0.0 0.00 0.00 0.00 99 1010.5
20260509121904 73 50 0.0 0.0 0.00 0.00 0.00 99 1010.4
20260509121401 73 52 0.0 0.0 0.00 0.00 0.00 99 1010.5
20260509120859 73 52 0.0 0.0 0.00 0.00 0.00 99 1010.5
20260509120357 73 50 0.0 0.0 0.00 0.00 0.00 99 1010.3
20260509115854 73 80 0.0 0.0 0.00 0.00 0.00 99 1010.3
20260509115352 73 80 0.0 0.0 0.00 0.00 0.00 99 1010.1
20260509114849 73 81 0.0 0.0 0.00 0.00 0.00 99 1010.2
20260509114348 73 82 0.0 0.0 0.00 0.00 0.00 99 1010.4
20260509113847 73 27 0.0 0.0 0.00 0.00 0.00 99 1010.2
20260509113344 73 33 0.0 0.0 0.00 0.00 0.00 99 1010.1
20260509112840 73 34 0.0 0.0 0.00 0.00 0.00 99 1010.1
20260509112337 73 42 0.0 0.0 0.00 0.00 0.00 99 1010.0
20260509111834 73 42 0.0 0.0 0.00 0.00 0.00 99 1010.2
20260509111331 73 41 0.0 0.0 0.00 0.00 0.00 99 1010.3
20260509110829 73 41 0.0 0.0 0.00 0.00 0.00 99 1010.4
20260509110325 73 44 0.0 0.0 0.00 0.00 0.00 99 1010.5
20260509105823 73 52 0.0 0.0 0.00 0.00 0.00 99 1010.5
20260509105321 73 52 0.0 0.0 0.00 0.00 0.00 99 1010.3
20260509104817 73 53 0.0 0.0 0.00 0.00 0.00 99 1010.3
20260509104314 73 25 0.0 0.0 0.00 0.00 0.00 99 1010.5
20260509103812 73 27 0.0 0.0 0.00 0.00 0.00 99 1010.3
20260509103309 73 34 0.0 0.0 0.00 0.00 0.00 99 1010.2
20260509102808 73 27 0.0 0.0 0.00 0.00 0.00 99 1009.8
20260509102306 73 36 0.0 0.0 0.00 0.00 0.00 99 1009.7
20260509101800 73 35 0.0 0.0 0.00 0.00 0.00 99 1009.9
20260509101257 73 36 0.0 0.0 0.00 0.00 0.00 99 1009.8
20260509100754 73 33 0.0 0.0 0.00 0.00 0.00 99 1009.8
20260509100252 73 31 0.9 0.9 0.00 0.00 0.00 99 1009.6
20260509095748 73 32 0.9 1.7 0.00 0.00 0.00 99 1009.6
20260509095245 73 52 0.0 0.0 0.00 0.00 0.00 99 1009.6
20260509094742 73 39 0.0 0.9 0.00 0.00 0.00 99 1009.4
20260509094239 74 93 0.0 0.0 0.00 0.00 0.00 99 1009.5
20260509093737 73 93 0.0 0.0 0.00 0.00 0.00 99 1009.3
20260509093234 73 93 0.0 0.0 0.00 0.00 0.00 99 1009.3
20260509092732 74 93 0.0 0.0 0.00 0.00 0.00 99 1009.3
20260509092230 74 93 0.0 0.0 0.00 0.00 0.00 99 1009.2
20260509091728 73 93 0.0 0.0 0.00 0.00 0.00 99 1009.2
20260509091223 73 93 0.0 0.0 0.00 0.00 0.00 99 1009.1
20260509090722 73 93 0.0 0.0 0.00 0.00 0.00 99 1009.2
20260509090218 73 93 0.0 0.0 0.00 0.00 0.00 99 1009.3
20260509085716 74 93 0.0 0.0 0.00 0.00 0.00 99 1009.3
20260509085213 73 93 0.0 0.0 0.00 0.00 0.00 99 1009.3
20260509084710 73 93 0.0 0.0 0.00 0.00 0.00 99 1009.4
20260509084206 74 93 0.0 0.0 0.00 0.00 0.00 99 1009.5
20260509083704 74 93 0.0 0.0 0.00 0.00 0.00 99 1009.8
20260509083201 74 93 0.0 0.0 0.00 0.00 0.00 99 1009.7
20260509082658 74 93 0.0 0.0 0.00 0.00 0.00 99 1009.9
20260509082154 74 92 0.0 0.0 0.00 0.00 0.00 99 1009.8
20260509081651 74 92 0.0 0.0 0.00 0.00 0.00 99 1010.0
20260509081148 74 92 0.0 0.0 0.00 0.00 0.00 99 1010.1
20260509080646 74 92 0.0 0.0 0.00 0.00 0.00 99 1010.1
20260509080144 74 93 0.0 0.0 0.00 0.00 0.00 99 1010.3
20260509075642 74 93 0.0 0.0 0.00 0.00 0.00 99 1010.4
20260509075140 74 93 0.0 0.0 0.00 0.00 0.00 99 1010.4
20260509074636 74 93 0.0 0.0 0.00 0.00 0.00 99 1010.2
20260509074133 74 81 0.0 0.0 0.00 0.00 0.00 99 1010.1
20260509073629 74 81 0.0 0.0 0.00 0.00 0.00 99 1010.0
20260509073125 74 81 0.0 0.0 0.00 0.00 0.00 99 1009.8
20260509072623 74 81 0.0 0.0 0.00 0.00 0.00 99 1010.1
20260509072120 74 81 0.0 0.0 0.00 0.00 0.00 99 1009.9
20260509071616 74 81 0.0 0.0 0.00 0.00 0.00 99 1009.8
20260509071113 74 81 0.0 0.0 0.00 0.00 0.00 99 1009.9
20260509070610 73 81 0.0 0.0 0.00 0.00 0.00 99 1009.9
20260509070107 73 81 0.0 0.0 0.00 0.00 0.00 99 1009.9
20260509065602 74 81 0.0 0.0 0.00 0.00 0.00 99 1010.1
20260509065058 74 81 0.0 0.0 0.00 0.00 0.00 99 1010.0
20260509064556 74 81 0.0 0.0 0.00 0.00 0.00 99 1009.8
20260509064054 73 81 0.0 0.0 0.00 0.00 0.00 99 1009.8
20260509063550 73 81 0.0 0.0 0.00 0.00 0.00 99 1010.0
20260509063047 73 81 0.0 0.0 0.00 0.00 0.00 99 1009.8
20260509062544 73 81 0.0 0.0 0.00 0.00 0.00 99 1010.0
20260509062042 73 81 0.0 0.0 0.00 0.00 0.00 99 1010.1
20260509061538 73 61 0.0 0.0 0.00 0.00 0.00 99 1010.3
20260509061036 73 94 0.0 0.0 0.00 0.00 0.00 99 1010.4
20260509060533 73 94 0.0 0.0 0.00 0.00 0.00 99 1010.7
20260509060029 73 107 0.0 0.0 0.00 0.00 0.00 99 1010.6
20260509055524 73 74 0.0 0.0 0.00 0.00 0.00 99 1010.7
20260509055021 73 68 0.0 0.0 0.00 0.00 0.00 99 1010.7
20260509054517 73 67 0.0 0.0 0.00 0.00 0.00 99 1010.7
20260509054016 73 68 0.0 0.0 0.00 0.00 0.00 99 1010.8
20260509053514 73 68 0.0 0.0 0.00 0.00 0.00 99 1010.8
20260509053010 73 71 0.0 0.0 0.00 0.00 0.00 99 1010.5
20260509052508 73 81 0.0 0.0 0.00 0.00 0.00 99 1010.6
20260509052006 73 81 0.0 0.0 0.00 0.00 0.00 99 1010.5
20260509051504 73 70 0.0 0.0 0.00 0.00 0.00 99 1010.7
20260509051000 73 74 0.0 0.0 0.00 0.00 0.00 99 1010.6
20260509050456 73 74 0.0 0.0 0.00 0.00 0.00 99 1010.9
20260509045953 73 74 0.0 0.0 0.00 0.72 0.72 99 1010.6
20260509045451 73 70 0.0 0.0 0.00 0.72 0.72 99 1010.7
20260509044948 72 84 0.0 0.0 0.00 0.72 0.72 99 1010.7
20260509044445 72 83 0.0 0.0 0.00 0.72 0.72 99 1010.8
20260509043942 72 82 0.0 0.0 0.00 0.72 0.72 99 1010.8
20260509043438 72 82 0.0 1.7 0.00 0.72 0.72 99 1010.8
20260509042933 72 58 0.0 0.0 0.00 0.72 0.72 99 1010.6
20260509042431 72 90 0.0 0.0 0.00 0.72 0.72 99 1010.6
20260509041927 72 82 0.0 0.0 0.00 0.72 0.72 99 1010.9
20260509041424 72 85 0.0 0.0 0.00 0.72 0.72 99 1010.8
20260509040922 72 54 0.0 0.9 0.00 0.72 0.72 99 1010.9
20260509040420 72 62 0.0 0.0 0.00 0.72 0.72 99 1010.7
20260509035916 72 76 0.0 0.0 0.00 0.72 0.72 99 1010.6
20260509035414 72 64 0.0 0.0 0.00 0.72 0.72 99 1010.7
20260509034910 72 64 0.0 0.0 0.00 0.72 0.72 99 1010.6
20260509034408 72 82 0.0 0.0 0.00 0.72 0.72 99 1010.4
20260509033905 73 72 0.0 0.9 0.00 0.72 0.72 99 1010.4
20260509033402 72 85 0.0 0.0 0.00 0.72 0.72 99 1010.7
20260509032858 72 59 0.0 0.0 0.00 0.72 0.72 99 1010.7
20260509032355 72 74 0.0 0.0 0.00 0.72 0.72 99 1010.5
20260509031853 72 77 0.0 0.0 0.00 0.72 0.72 99 1010.4
20260509031350 72 67 0.0 0.0 0.00 0.72 0.72 99 1010.8
20260509030848 72 66 0.0 0.0 0.00 0.72 0.72 99 1010.4
20260509030345 72 66 0.0 0.0 0.00 0.72 0.72 99 1010.6
20260509025837 72 66 0.0 0.0 0.00 0.72 0.72 99 1010.5
20260509025332 72 60 0.0 0.0 0.00 0.72 0.72 99 1010.8
20260509024827 72 61 0.0 0.0 0.00 0.72 0.72 99 1010.7
20260509024324 72 60 0.0 0.9 0.00 0.72 0.72 99 1010.5
20260509023821 72 54 0.0 0.0 0.00 0.72 0.72 99 1010.5
20260509023318 72 58 0.0 0.0 0.00 0.72 0.72 99 1010.3
20260509022815 72 60 0.0 0.0 0.00 0.72 0.72 99 1010.3
20260509022313 72 58 0.0 0.0 0.00 0.72 0.72 99 1010.4
20260509021809 72 58 0.0 0.0 0.00 0.72 0.72 99 1010.4
20260509021306 72 58 0.0 0.0 0.00 0.72 0.72 99 1010.3
20260509020803 72 52 0.0 0.0 0.00 0.72 0.72 99 1010.1